TimeEST,TemperatureF,Dew PointF,Humidity,Sea Level PressureIn,VisibilityMPH,Wind Direction,Wind SpeedMPH,Gust SpeedMPH,PrecipitationIn,Events,Conditions,WindDirDegrees,DateUTC
12:56 AM,43.0,41.0,93,30.39,4.0,North,6.9,-,0.00,,Overcast,10,2012-12-02 05:56:00
1:21 AM,42.8,41.0,93,30.38,4.0,North,4.6,-,N/A,,Overcast,360,2012-12-02 06:21:00
1:56 AM,43.0,41.0,93,30.38,3.0,North,4.6,-,N/A,,Overcast,360,2012-12-02 06:56:00
2:08 AM,42.8,41.0,93,30.38,2.5,North,5.8,-,N/A,,Overcast,360,2012-12-02 07:08:00
2:22 AM,42.8,41.0,93,30.38,1.8,North,4.6,-,N/A,,Overcast,360,2012-12-02 07:22:00
2:56 AM,43.0,42.1,97,30.38,1.5,North,3.5,-,N/A,,Overcast,360,2012-12-02 07:56:00
3:15 AM,42.8,42.8,100,30.37,0.8,NNE,4.6,-,N/A,,Overcast,30,2012-12-02 08:15:00
3:56 AM,43.0,42.1,97,30.36,0.5,North,5.8,-,N/A,Fog,Fog,10,2012-12-02 08:56:00
4:56 AM,42.1,39.9,92,30.36,0.5,North,6.9,-,N/A,Fog,Fog,10,2012-12-02 09:56:00
5:45 AM,41.0,39.2,93,30.36,0.2,North,5.8,-,N/A,Fog,Fog,360,2012-12-02 10:45:00
5:52 AM,41.0,39.2,93,30.36,0.2,North,5.8,-,N/A,Fog,Fog,10,2012-12-02 10:52:00
5:56 AM,41.0,39.0,93,30.37,0.2,North,5.8,-,N/A,Fog,Fog,10,2012-12-02 10:56:00
6:56 AM,41.0,39.0,93,30.37,0.2,North,4.6,-,N/A,Fog,Fog,10,2012-12-02 11:56:00
7:56 AM,41.0,39.9,96,30.35,0.2,Calm,Calm,-,N/A,Fog,Fog,0,2012-12-02 12:56:00
8:28 AM,41.0,41.0,100,30.35,0.2,Calm,Calm,-,N/A,Fog,Fog,0,2012-12-02 13:28:00
8:56 AM,42.1,42.1,100,30.34,0.2,Calm,Calm,-,N/A,Fog,Fog,0,2012-12-02 13:56:00
9:33 AM,42.8,42.8,100,30.33,0.8,Calm,Calm,-,N/A,,Mist,0,2012-12-02 14:33:00
9:56 AM,44.1,44.1,100,30.32,1.0,Calm,Calm,-,N/A,,Overcast,0,2012-12-02 14:56:00
11:56 AM,46.9,43.0,86,30.27,3.0,SW,5.8,-,N/A,,Overcast,220,2012-12-02 16:56:00
12:21 PM,46.4,42.8,87,30.26,5.0,SW,9.2,-,N/A,,Haze,230,2012-12-02 17:21:00
12:56 PM,46.9,43.0,86,30.25,5.0,WSW,8.1,-,N/A,,Overcast,240,2012-12-02 17:56:00
2:56 PM,46.9,44.1,90,30.20,4.0,SW,9.2,-,N/A,,Overcast,220,2012-12-02 19:56:00
3:56 PM,48.0,45.0,89,30.18,5.0,South,6.9,-,N/A,,Mostly Cloudy,180,2012-12-02 20:56:00
4:56 PM,48.0,45.0,89,30.17,6.0,South,5.8,-,N/A,,Mostly Cloudy,180,2012-12-02 21:56:00
5:56 PM,48.0,45.0,89,30.14,9.0,South,9.2,-,N/A,,Mostly Cloudy,190,2012-12-02 22:56:00
6:56 PM,51.1,46.9,86,30.14,10.0,SSW,10.4,-,N/A,,Overcast,200,2012-12-02 23:56:00
7:56 PM,51.1,46.9,86,30.14,10.0,SSW,11.5,-,N/A,,Overcast,210,2012-12-03 00:56:00
8:56 PM,51.1,46.9,86,30.14,10.0,SW,10.4,-,0.00,,Overcast,220,2012-12-03 01:56:00
9:56 PM,51.1,46.9,86,30.13,10.0,SW,13.8,23.0,0.00,Rain,Light Rain,220,2012-12-03 02:56:00
10:56 PM,50.0,46.9,89,30.13,2.0,SSW,8.1,-,0.04,Rain,Light Rain,210,2012-12-03 03:56:00
11:56 PM,50.0,48.0,93,30.11,3.0,SSW,9.2,-,0.00,,Overcast,210,2012-12-03 04:56:00